TimeWEST,TemperatureF,Dew PointF,Humidity,Sea Level PressureIn,VisibilityMPH,Wind Direction,Wind SpeedMPH,Gust SpeedMPH,PrecipitationIn,Events,Conditions,WindDirDegrees,DateUTC
12:00 AM,80.6,41.0,24,30.04,-9999.0,WSW,4.6,-,N/A,,Clear,240,2013-08-30 23:00:00
1:00 AM,78,42,17,,12,WSW,6.9,,,,,240,2013-08-31 00:00:00
1:00 AM,78.8,41.0,26,30.06,-9999.0,WSW,6.9,-,N/A,,Clear,240,2013-08-31 00:00:00
2:00 AM,77.0,39.2,26,30.04,-9999.0,WSW,8.1,-,N/A,,Clear,240,2013-08-31 01:00:00
3:00 AM,73.4,35.6,25,30.04,-9999.0,Variable,1.2,-,N/A,,Clear,0,2013-08-31 02:00:00
4:00 AM,71.6,32.0,23,30.04,-9999.0,West,6.9,-,N/A,,Clear,270,2013-08-31 03:00:00
5:00 AM,69.8,30.2,23,30.04,-9999.0,West,4.6,-,N/A,,Clear,280,2013-08-31 04:00:00
6:00 AM,66.2,32.0,28,30.06,-9999.0,Variable,2.3,-,N/A,,Clear,0,2013-08-31 05:00:00
7:00 AM,68,31,15,,12,WNW,3.5,,,,,290,2013-08-31 06:00:00
7:00 AM,68.0,30.2,24,30.06,-9999.0,WNW,3.5,-,N/A,,Clear,290,2013-08-31 06:00:00
8:00 AM,68.0,26.6,21,30.09,-9999.0,West,5.8,-,N/A,,Clear,260,2013-08-31 07:00:00
9:00 AM,75.2,41.0,29,30.09,-9999.0,Calm,Calm,-,N/A,,Clear,0,2013-08-31 08:00:00
10:00 AM,80,46,20,,12,Calm,Calm,,,,,,2013-08-31 09:00:00
10:00 AM,78.8,46.4,32,30.12,-9999.0,Calm,Calm,-,N/A,,Clear,0,2013-08-31 09:00:00
11:00 AM,82.4,46.4,28,30.12,-9999.0,Calm,Calm,-,N/A,,Clear,0,2013-08-31 10:00:00
12:00 PM,86.0,42.8,22,30.09,-9999.0,Variable,2.3,-,N/A,,Clear,0,2013-08-31 11:00:00
1:00 PM,89,38,9,,12,South,1.2,,,,,170,2013-08-31 12:00:00
1:00 PM,87.8,37.4,17,30.09,-9999.0,Variable,1.2,-,N/A,,Clear,0,2013-08-31 12:00:00
2:00 PM,91.4,39.2,16,30.06,-9999.0,Variable,2.3,-,N/A,,Clear,0,2013-08-31 13:00:00
3:00 PM,93.2,37.4,14,30.04,-9999.0,Variable,1.2,-,N/A,,Clear,0,2013-08-31 14:00:00
4:00 PM,92,37,7,,12,SSW,2.3,,,,,210,2013-08-31 15:00:00
4:00 PM,93.2,37.4,14,30.04,-9999.0,Variable,2.3,-,N/A,,Clear,0,2013-08-31 15:00:00
5:00 PM,96.8,30.2,10,30.01,-9999.0,South,4.6,-,N/A,,Clear,190,2013-08-31 16:00:00
6:00 PM,96.8,30.2,10,29.98,-9999.0,Variable,3.5,-,N/A,,Clear,0,2013-08-31 17:00:00
7:00 PM,85,44,15,29.87,6,ENE,9.2,,,,,60,2013-08-31 18:00:00
7:00 PM,96.8,26.6,8,29.98,-9999.0,WNW,10.4,-,N/A,,Clear,290,2013-08-31 18:00:00
8:00 PM,93.2,35.6,13,30.01,-9999.0,North,12.7,-,N/A,,Clear,350,2013-08-31 19:00:00
9:00 PM,87.8,33.8,15,30.01,-9999.0,NNW,11.5,-,N/A,,Clear,340,2013-08-31 20:00:00
10:00 PM,86.0,33.8,15,30.06,-9999.0,Calm,Calm,-,N/A,,Clear,0,2013-08-31 21:00:00
11:00 PM,84.2,35.6,18,30.06,-9999.0,Variable,3.5,-,N/A,,Clear,0,2013-08-31 22:00:00